Location: Beddau
(51.5575°N, 3.3561°W)
Time: 12:35:39
(UTC+00:00)

Cosmos 2327 Rocket - Pass Details

Date: 03 March 2021
Orbit: 943 x 1009 km, 83.0° (Epoch: 16 April)

Event Time Altitude Azimuth Distance (km) Brightness Sun altitude
Rises 19:02:57 0° 183° (S) 3,708 7.5 -11.0°
Reaches altitude 10° 19:05:29 10° 182° (S) 2,756 6.9 -11.3°
Maximum altitude 19:11:48 80° 97° (E) 1,005 4.5 -12.3°
Drops below altitude 10° 19:18:04 10° 12° (NNE) 2,730 6.8 -13.3°
Sets 19:20:34 0° 11° (NNE) 3,671 7.5 -13.7°
